Budapest Ferihegy, Hungary

10:18 PM CEST on September 26, 2017 (GMT +0200)
Ferihegy

Weather History for LHBP - October, 2012

Change the Weather History Date:

Monday, October 8, 2012

  Actual Average Record
Temperature  
Mean Temperature 48 °F -  
Max Temperature 57 °F 56 °F 78 °F (2001)
Min Temperature 39 °F 38 °F 32 °F (2016)
Degree Days  
Heating Degree Days 17    
Moisture  
Dew Point 38 °F    
Average Humidity 68    
Maximum Humidity 93    
Minimum Humidity 44    
Precipitation  
Precipitation 0.00 in - - ()
Sea Level Pressure  
Sea Level Pressure 30.09 in    
Wind  
Wind Speed 14 mph ()    
Max Wind Speed 26 mph    
Max Gust Speed -    
Visibility 6.2 miles    
Events      
Averages and records for this station are not official NWS values.
T = Trace of Precipitation, MM = Missing Value Source: Averaged Metar Reports

Daily Weather History Graph

Daily Weather History Graph

Search for Another Location

Airport or City:

Trip Planner

Search our weather history database for the weather conditions in past years. The results will help you decide how hot, cold, wet, or windy it might be!

Date:

Astronomy

Oct. 08, 2012 Rise Set
Actual Time 6:51 AM CEST 6:08 PM CEST
Civil Twilight 6:21 AM CEST 6:38 PM CEST
Nautical Twilight 5:45 AM CEST 7:14 PM CEST
Astronomical Twilight 5:09 AM CEST 7:49 PM CEST
Moon 11:47 PM CEST (10/8) 2:11 PM CEST (10/8)
Length of Visible Light 12h 17m
Length of Day
11h 16m
Waning Gibbous, 49% of the Moon is Illuminated
Oct 8
Waning Gibbous
Oct 15
New
Oct 22
First Quarter
Oct 29
Full
Nov 7
Last Quarter

Hourly Weather History & Observations

Time (CEST) Temp. Windchill Dew Point Humidity Pressure Visibility Wind Dir Wind Speed Gust Speed Precip Events Conditions
12:00 AM 48.2 °F - 39.2 °F 71% 29.98 in - WNW 26.5 mph - N/A   Clear
12:30 AM 48.2 °F - 39.2 °F 71% 30.01 in - WNW 21.9 mph - N/A   Clear
1:00 AM 48.2 °F - 39.2 °F 71% 30.01 in - NW 17.3 mph - N/A   Clear
1:30 AM 48.2 °F - 37.4 °F 66% 30.04 in - WNW 19.6 mph - N/A   Clear
2:00 AM 46.4 °F 39.8 °F 39.2 °F 76% 30.04 in - WNW 16.1 mph - N/A   Clear
2:30 AM 46.4 °F 40.4 °F 41.0 °F 81% 30.06 in - WNW 13.8 mph - N/A   Clear
3:00 AM 46.4 °F 39.2 °F 41.0 °F 81% 30.06 in - WNW 18.4 mph - N/A   Clear
3:30 AM 46.4 °F 39.2 °F 41.0 °F 81% 30.09 in - WNW 18.4 mph - N/A   Clear
4:00 AM 46.4 °F 39.5 °F 41.0 °F 81% 30.09 in - WNW 17.3 mph - N/A   Clear
4:30 AM 46.4 °F 39.8 °F 41.0 °F 81% 30.09 in - WNW 16.1 mph - N/A   Clear
5:00 AM 46.4 °F 39.0 °F 41.0 °F 81% 30.09 in - WNW 19.6 mph - N/A   Clear
5:30 AM 46.4 °F 39.5 °F 41.0 °F 81% 30.09 in - WNW 17.3 mph - N/A   Clear
6:00 AM 46.4 °F 40.4 °F 41.0 °F 81% 30.12 in - West 13.8 mph - N/A   Clear
6:30 AM 46.4 °F 41.5 °F 41.0 °F 81% 30.12 in - West 10.4 mph - N/A   Clear
7:00 AM 44.6 °F 41.4 °F 41.0 °F 87% 30.12 in - WSW 5.8 mph - N/A   Clear
7:30 AM 46.4 °F 41.9 °F 41.0 °F 81% 30.12 in - West 9.2 mph - N/A   Clear
8:00 AM 48.2 °F - 41.0 °F 76% 30.12 in - West 11.5 mph - N/A   Clear
8:30 AM 48.2 °F - 41.0 °F 76% 30.15 in - West 11.5 mph - N/A   Clear
9:00 AM 50.0 °F - 41.0 °F 71% 30.15 in - WNW 15.0 mph - N/A   Clear
9:30 AM 50.0 °F - 41.0 °F 71% 30.15 in - WNW 16.1 mph - N/A   Clear
10:00 AM 51.8 °F - 41.0 °F 67% 30.15 in 6.2 mi WNW 18.4 mph - N/A   Partly Cloudy
10:30 AM 51.8 °F - 41.0 °F 67% 30.15 in 6.2 mi WNW 19.6 mph - N/A   Partly Cloudy
11:00 AM 53.6 °F - 41.0 °F 62% 30.15 in 6.2 mi WNW 20.7 mph - N/A   Partly Cloudy
11:30 AM 53.6 °F - 39.2 °F 58% 30.15 in 6.2 mi WNW 17.3 mph - N/A   Partly Cloudy
12:00 PM 55.4 °F - 39.2 °F 54% 30.12 in 6.2 mi WNW 19.6 mph - N/A   Partly Cloudy
12:30 PM 55.4 °F - 39.2 °F 54% 30.12 in 6.2 mi NW 19.6 mph - N/A   Partly Cloudy
1:00 PM 55.4 °F - 37.4 °F 51% 30.12 in 6.2 mi NW 21.9 mph - N/A   Partly Cloudy
1:30 PM 57.2 °F - 37.4 °F 48% 30.12 in 6.2 mi WNW 20.7 mph - N/A   Partly Cloudy
2:00 PM 55.4 °F - 35.6 °F 47% 30.12 in 6.2 mi NW 19.6 mph - N/A   Scattered Clouds
2:30 PM 57.2 °F - 37.4 °F 48% 30.09 in 6.2 mi SSW 12.7 mph - N/A   Scattered Clouds
3:00 PM 55.4 °F - 37.4 °F 51% 30.09 in 6.2 mi NNW 15.0 mph - N/A   Scattered Clouds
3:30 PM 57.2 °F - 35.6 °F 44% 30.09 in 6.2 mi NNW 16.1 mph - N/A   Scattered Clouds
4:00 PM 57.2 °F - 35.6 °F 44% 30.09 in - WNW 15.0 mph - N/A   Clear
4:30 PM 57.2 °F - 35.6 °F 44% 30.09 in - NNW 11.5 mph - N/A   Clear
5:00 PM 55.4 °F - 33.8 °F 44% 30.09 in - West 15.0 mph - N/A   Clear
5:30 PM 55.4 °F - 33.8 °F 44% 30.09 in - WNW 16.1 mph - N/A   Clear
6:00 PM 53.6 °F - 35.6 °F 51% 30.09 in - WNW 11.5 mph - N/A   Clear
6:30 PM 50.0 °F - 35.6 °F 58% 30.09 in - WNW 9.2 mph - N/A   Clear
7:00 PM 51.8 °F - 35.6 °F 54% 30.09 in - NW 4.6 mph - N/A   Clear
7:30 PM 46.4 °F 43.5 °F 37.4 °F 71% 30.09 in - West 5.8 mph - N/A   Clear
8:00 PM 50.0 °F - 35.6 °F 58% 30.09 in - WSW 6.9 mph - N/A   Clear
8:30 PM 44.6 °F 40.7 °F 37.4 °F 76% 30.09 in - West 6.9 mph - N/A   Clear
9:00 PM 44.6 °F - 35.6 °F 71% 30.09 in - Variable 1.2 mph - N/A   Clear
9:30 PM 41.0 °F - 35.6 °F 81% 30.09 in - Variable 2.3 mph - N/A   Clear
10:00 PM 39.2 °F - 35.6 °F 87% 30.09 in - Variable 1.2 mph - N/A   Clear
10:30 PM 39.2 °F - 35.6 °F 87% 30.09 in - Variable 1.2 mph - N/A   Clear
11:00 PM 41.0 °F - 37.4 °F 87% 30.06 in - Variable 2.3 mph - N/A   Clear
11:30 PM 39.2 °F - 37.4 °F 93% 30.06 in - Variable 2.3 mph - N/A   Clear